Simultaneous Nadir Overpasses (SNOs) Predictions

Prediction of SNOs between TERRA and METOP-C Satellite Orbit:

Table of predicted SNOs for the next 14.0 days since TLE Epoch: 7/18/2020
Index Date (TERRA) Time (TERRA) Lat,Lon (TERRA) SZA (TERRA ) Date (METOP-C) Time (METOP-C) Lat,Lon (METOP-C) SZA (METOP-C ) Distance(km) Time Diff (sec)
1 07/18/2020 10:23:13 81.30, 71.53 63.15 07/18/2020 10:22:11 81.30, 71.46 63.12 1.19 62
2 07/18/2020 11:12:39 -81.31,-120.56 116.81 07/18/2020 11:12:50 -81.31,-120.58 116.81 0.35 11
3 07/21/2020 05:57:27 81.31, 138.16 63.70 07/21/2020 05:56:31 81.31, 138.32 63.69 2.72 56
4 07/21/2020 06:46:54 -81.31, -54.28 116.31 07/21/2020 06:47:11 -81.31, -54.13 116.28 2.64 17
5 07/24/2020 01:31:42 81.32,-155.26 64.29 07/24/2020 01:30:53 81.31,-155.23 64.26 0.84 49
6 07/24/2020 02:21:09 -81.32, 12.33 115.72 07/24/2020 02:21:33 -81.31, 12.30 115.71 0.56 24
7 07/26/2020 21:05:58 81.30, -89.09 64.86 07/26/2020 21:05:16 81.31, -89.19 64.83 1.69 42
8 07/26/2020 21:55:24 -81.32, 78.90 115.08 07/26/2020 21:55:55 -81.31, 78.72 115.09 3.18 31
9 07/29/2020 16:40:12 81.31, -22.59 65.53 07/29/2020 16:39:37 81.31, -22.77 65.49 3.06 35



Historial Predications of SNOs between TERRA and METOP-C
